Location: Curicchi
(45.0167°N, 12.0500°E)
Time: 04:20:38
(UTC+00:00)

Cosmos 2058 - Pass Details

Date: 07 June 2020
Orbit: 561 x 584 km, 82.5° (Epoch: 07 July)

Event Time Altitude Azimuth Distance (km) Brightness Sun altitude
Exits shadow 02:27:03 11° 239° (WSW) 1,852 4.9 -8.8°
Maximum altitude 02:30:10 22° 289° (WNW) 1,306 4.5 -8.4°
Drops below altitude 10° 02:33:29 10° 340° (NNW) 1,916 5.9 -8.0°
Sets 02:36:06 0° 356° (N) 2,821 7.1 -7.7°
